SPIRALE A

Last updated on Jan. 18, 2020, 4:39 a.m. UTC

1 33751U 09008C   20017.26331016  .00000064  00000-0  37375-3 0  9996
2 33751   2.0630 354.0118 5385821  51.4646 345.7432  4.58726125154291
UTC
Height (km)
Latitude
Longitude
Inclination
Orbital Period
UTC large
Height (km)
Speed (km/s)
/
Latitude / Longitude
Inclination (degrees)
Orbital Period (minutes)
Azimuth
Elevation
Range (km)
Doppler Factor
iOS Compass Heading
iOS Angle

Next 30 passes for location: Hong Kong

Rise time Rise Azimuth (degrees) Set time Set Azimuth (degrees) Duration Max altitude (degrees)

No matching passes for this satellites